Location: Brotuna
(46.2000°N, 22.6000°E)
Time: 13:56:08
(UTC+00:00)

IRIDIUM 106 - Visible Passes

Search period start: 06 August 2020 00:00
Search period end: 16 August 2020 00:00
Orbit: 776 x 779 km, 86.4° (Epoch: 05 August)

Date Brightness Start Highest point End Pass type
(mag) Time Alt. Az. Time Alt. Az. Time Alt. Az.
06 Aug 4.9 19:29:23 10° SSW 19:34:31 59° W 19:39:42 10° N visible
07 Aug 4.3 18:55:46 10° S 19:00:58 80° E 19:06:13 10° N visible
07 Aug 7.0 20:39:34 10° WSW 20:42:22 14° WNW 20:45:12 10° NW visible
08 Aug 4.7 18:22:36 10° SSE 18:27:31 45° E 18:32:29 10° NNE visible
08 Aug 6.4 20:04:14 10° SW 20:08:28 25° WNW 20:12:43 10° NNW visible
09 Aug 5.5 19:29:47 10° SSW 19:34:42 42° W 19:39:39 10° N visible
10 Aug 4.6 18:55:52 10° S 19:01:04 74° W 19:06:18 10° N visible
10 Aug 7.4 20:42:25 10° WNW 20:42:46 10° WNW 20:43:08 10° WNW visible
11 Aug 4.4 18:22:25 10° S 18:27:33 64° E 18:32:43 10° N visible
11 Aug 6.9 20:05:16 10° WSW 20:08:46 18° WNW 20:12:18 10° NNW visible
12 Aug 6.2 19:30:22 10° SW 19:34:55 30° WNW 19:39:31 10° NNW visible
13 Aug 5.2 18:56:08 10° SSW 19:01:13 52° W 19:06:19 10° N visible
14 Aug 4.4 18:22:24 10° S 18:27:37 89° E 18:32:52 10° N visible
14 Aug 7.2 20:06:49 10° W 20:09:08 13° WNW 20:11:28 10° NW visible
15 Aug 6.8 19:31:11 10° SW 19:35:11 22° WNW 19:39:13 10° NNW visible
